Regional Weather Roundup
Issued by NWS

Home | Current Version | Previous Version | Text Only | Print | Product List | Glossary On
Versions: 1 2 3 4 5 6 7 8 9 10 11 12 13 14 15 16 17 18 19 20 21 22 23 24 25 26 27 28 29 30 31 32 33 34 35 36 37 38 39 40 41 42 43 44 45 46 47 48 49
000
ASUS45 KCYS 211310
RWRWY

WYOMING REGIONAL WEATHER ROUNDUP
NATIONAL WEATHER SERVICE CHEYENNE WY
600 AM MST SUN DEC 21 2014

NOTE:  "FAIR" INDICATES FEW OR NO CLOUDS BELOW 12,000 FEET
WITH NO SIGNIFICANT WEATHER AND/OR OBSTRUCTIONS TO VISIBILITY.

WYZ001-211400-
YELLOWSTONE NATIONAL PARK

CITY           SKY/WX    TMP DP  RH WIND       PRES   REMARKS
LK YELLOWSTONE   N/A     27  23  85 W9G18     29.66F WCI  18
W YELLOWSTONE  NOT AVBL

$$
WYZ002>013-054>058-071-098>099-211400-
NORTHERN WYOMING

CITY           SKY/WX    TMP DP  RH WIND       PRES   REMARKS
JACKSON        CLOUDY    30  30 100 S14       29.71F VSB 3/4 WCI  20
CODY           FAIR      43  25  49 W20G28    29.52R
GREYBULL       MOCLDY    17  15  92 W5        29.56F WCI  10
WORLAND        FAIR      16  13  88 E13       29.53F WCI   2
SHERIDAN       FAIR      23  18  81 VRB5      29.48F WCI  17
BUFFALO        MOCLDY    32  17  54 NW10      29.49F WCI  24
GILLETTE       FAIR      35  25  66 SW18G26   29.49F WCI  24
HULETT           N/A    N/A N/A N/A MISG        N/A
NEWCASTLE      FAIR      27  23  86 E5        29.60F WCI  21

$$
WYZ014>020-022>026-101>103-211400-
CENTRAL WYOMING

CITY           SKY/WX    TMP DP  RH WIND       PRES   REMARKS
BIG PINEY      LGT SNOW  26  24  92 VRB3      29.78F FOG
PINEDALE       LGT SNOW  28  28 100 SE8       29.79S WCI  20
DUBOIS         NOT AVBL
LANDER         FAIR      17  12  80 NE3       29.62F
RIVERTON       FAIR      11   7  84 CALM      29.64S
CASPER         FAIR      35  27  72 SW22G32   29.62F WCI  23
DOUGLAS        FAIR      41  27  57 W23G35    29.60F

$$
WYZ021-027>030-104>119-211400-
SOUTHERN WYOMING

CITY           SKY/WX    TMP DP  RH WIND       PRES   REMARKS
EVANSTON       LGT SNOW  31  30  96 SW24G31   29.88F VSB 1   WCI  17
KEMMERER       LGT SNOW  32  32 100 SW22      29.84F VSB 1   WCI  19
FORT BRIDGER   LGT SNOW  34  32  94 SW25G36   29.87F WCI  21
ROCK SPRINGS   FLURRIES  31  28  89 SW15      29.83F WCI  20
DIXON          LGT SNOW  32  29  88 S20       29.91F WCI  20
RAWLINS        CLOUDY    32  25  75 SW31G45   29.78F WCI  17
SARATOGA       CLOUDY    32  27  80 SW9       29.82F WCI  24
LARAMIE        CLOUDY    30  21  69 S16       29.76S WCI  19
CHEYENNE       FAIR      38  19  46 W18       29.72F WCI  28
TORRINGTON     FAIR     N/A N/A N/A CALM      29.66F
PINE BLUFFS    FAIR      27  19  74 S9        29.72F WCI  17

$$


USA.gov is the U.S. government's official web portal to all federal, state and local government web resources and services.